AirNav   Everest Fuels
 
 533 users online  

PN82 West Coplay Heliport
Whitehall, Pennsylvania, USA

GOING TO WHITEHALL?


FAA INFORMATION EFFECTIVE 16 JULY 2020

Location

FAA Identifier: PN82
Lat/Long: 40-40-27.4200N 075-30-18.3600W
40-40.457000N 075-30.306000W
40.6742833,-75.5051000
(estimated)
Elevation: 375 ft. / 114 m (estimated)
From city: 1 mile N of WHITEHALL, PA
Time zone: UTC -4 (UTC -5 during Standard Time)
Zip code: 18037

Heliport Operations

Heliport use: Private use. Permission required prior to landing
Activation date: 02/2007
Control tower: no
ARTCC: NEW YORK CENTER
FSS: WILLIAMSPORT FLIGHT SERVICE STATION
Attendance: 0800-1800
Segmented circle: no

Heliport Communications

WX ASOS at ABE (3 nm SE): 126.975 (610-266-3579)
WX AWOS-3 at XLL (6 nm S): 127.875 (610-231-3111)
WX AWOS-3PT at 22N (14 nm NW): 119.350 (570-386-3423)
WX AWOS-3 at UKT (15 nm S): 119.475 (215-538-7610)
WX AWOS-3 at CKZ (20 nm SE): 126.325 (215-257-7291)

Nearby radio navigation aids

VOR radial/distance  VOR name  Freq  Var
FJCr226/3.9ALLENTOWN VORTAC117.5010W
ETXr065/9.9EAST TEXAS VOR/DME110.2009W
PTWr014/27.2POTTSTOWN VORTAC116.5009W
BWZr268/31.9BROADWAY VOR/DME114.2011W
STWr247/34.7STILLWATER VOR/DME109.6011W
SBJr289/35.2SOLBERG VOR/DME112.9010W
LVZr177/36.9WILKES-BARRE VORTAC111.6010W
ARDr323/37.2YARDLEY VOR/DME108.2010W

 
NDB name  Hdg/Dist  Freq  Var  ID
AMBLER355/34.427512WING .. -. --.

Heliport Services

Runway Information

Helipad H1

Dimensions: 65 x 65 ft. / 20 x 20 m
Surface: asphalt
Traffic pattern: leftleft

Heliport Ownership and Management from official FAA records

Ownership: Privately-owned
Owner: SCHEUERMANN EXCAVATION INC.
5285 W. COPLAY RD
WHITEHALL, PA 18052
Phone 610-262-5000
Manager: DAVE SCHEUERMANN
5285 W. COPLAY RD
WHITEHALL, PA 18052
Phone 610-262-5000

Heliport Operational Statistics

Aircraft based on the field: 1
Helicopters: 1
    

Additional Remarks

FOR CD CTC ALLENTOWN APCH AT 800-728-6322.

Instrument Procedures

There are no published instrument procedures at PN82.

Some nearby airports with instrument procedures:

KABE - Lehigh Valley International Airport (3 nm SE)
KXLL - Allentown Queen City Municipal Airport (6 nm S)
N43 - Braden Airpark (13 nm E)
22N - Jake Arner Memorial Airport (14 nm NW)
KUKT - Quakertown Airport (15 nm S)
KCKZ - Pennridge Airport (20 nm SE)
 
Loc | Ops | Rwys | IFR | FBO | Links
Com | Nav | Svcs | Stats | Notes
Area around PN82 (West Coplay Heliport)
 
Road maps at: MapQuest Bing Google
 
Aerial photo
No photo
 
Sectional chart

 
Airport distance calculator
Flying to West Coplay Heliport? Find the distance to fly.

From to PN82

Sunrise and sunset
Times for 13-Aug-2020
 Local
(UTC-4)
 Zulu
(UTC)
Morning civil twilight05:4309:43
Sunrise06:1210:12
Sunset20:0100:01
Evening civil twilight20:3000:30

Current date and time
Zulu (UTC)  13-Aug-2020 05:52:32
Local (UTC-4)  13-Aug-2020 01:52:32
 
METAR
KABE 
3nm SE 
130451Z 00000KT 10SM CLR 23/21 A3008 RMK AO2 SLP183 T02280211 403220222
KXLL 
6nm S 
130535Z AUTO 00000KT 10SM CLR 22/22 A3009 RMK AO2
K22N 
14nm NW 
130535Z AUTO 00000KT 5SM BR CLR 20/20 A3011 RMK AO2
KUKT 
15nm S 
130535Z AUTO 00000KT 10SM BKN041 23/23 A3009 RMK A01
KCKZ 
20nm SE 
130535Z AUTO 00000KT 10SM 22/22 A3010 RMK AO2
TAF
KABE 
3nm SE 
121727Z 1218/1318 VRB03KT P6SM SCT040 BKN150 FM130700 VRB02KT P6SM BKN040 TEMPO 1309/1312 5SM BR FM131200 VRB03KT P6SM VCSH BKN040
NOTAMs
Click for the latest NOTAMs
NOTAMs are issued by the DoD/FAA and will open in a separate window not controlled by AirNav.

 

 
 

Would you like to see your business listed on this page?

 If your business provides an interesting product or service to pilots, flight crews, aircraft, or users of the West Coplay Heliport, you should consider listing it here.  To start the listing process, click on the button below
 
Add a business
 

Other Pages about West Coplay Heliport

Update a link
 
Copyright © AirNav, LLC. All rights reserved. Privacy Policy  Contact